KE6LRO Weather Reports


time (UTC)temp
C
wind
direction
speed
KPH
gust
KPH
rain 1hr
cm
rain 24hr
cm
rain mn
cm
humidity
%
barometer
mb
20260507191808 18 350 3.2 3.2 0.00 0.00 0.00 41 1018.1
20260507191305 17 352 0.0 1.6 0.00 0.00 0.00 42 1017.9
20260507190802 17 325 0.0 1.6 0.00 0.00 0.00 42 1018.1
20260507190301 17 343 0.0 1.6 0.00 0.00 0.00 44 1017.9
20260507185759 17 334 0.0 1.6 0.00 0.00 0.00 44 1017.9
20260507185255 17 0 0.0 1.6 0.00 0.00 0.00 41 1017.9
20260507184752 17 332 1.6 4.8 0.00 0.00 0.00 42 1018.1
20260507184251 17 1 0.0 1.6 0.00 0.00 0.00 44 1018.1
20260507183747 17 18 3.2 3.2 0.00 0.00 0.00 43 1017.9
20260507183244 17 341 0.0 0.0 0.00 0.00 0.00 43 1018.3
20260507182741 17 319 4.8 8.0 0.00 0.00 0.00 43 1018.1
20260507182236 17 343 1.6 9.7 0.00 0.00 0.00 43 1018.2
20260507181733 17 341 3.2 3.2 0.00 0.00 0.00 42 1018.4
20260507181230 16 315 6.4 9.7 0.00 0.00 0.00 43 1017.9
20260507180726 16 356 3.2 3.2 0.00 0.00 0.00 44 1018.3
20260507180223 17 7 0.0 3.2 0.00 0.00 0.00 45 1018.3
20260507175719 17 41 3.2 3.2 0.00 0.00 0.00 43 1018.5
20260507175216 17 356 1.6 4.8 0.00 0.00 0.00 42 1018.4
20260507174714 17 294 3.2 9.7 0.00 0.00 0.00 42 1018.5
20260507174211 17 99 3.2 4.8 0.00 0.00 0.00 43 1018.6
20260507173708 17 66 3.2 8.0 0.00 0.00 0.00 44 1018.6
20260507173205 17 8 4.8 11.3 0.00 0.00 0.00 43 1018.6
20260507172702 17 324 3.2 4.8 0.00 0.00 0.00 43 1018.8
20260507172159 18 323 8.0 14.5 0.00 0.00 0.00 42 1018.6
20260507171658 17 291 1.6 8.0 0.00 0.00 0.00 43 1018.6
20260507171156 17 316 6.4 12.9 0.00 0.00 0.00 45 1018.7
20260507170653 17 303 3.2 9.7 0.00 0.00 0.00 45 1019.1
20260507170150 17 5 4.8 8.0 0.00 0.00 0.00 46 1018.9
20260507165646 17 55 1.6 9.7 0.00 0.00 0.00 45 1018.9
20260507165142 18 356 3.2 9.7 0.00 0.00 0.00 44 1018.9
20260507164638 18 352 0.0 4.8 0.00 0.00 0.00 42 1018.7
20260507164135 18 326 1.6 3.2 0.00 0.00 0.00 43 1018.8
20260507163632 17 161 8.0 11.3 0.00 0.00 0.00 44 1018.9
20260507163131 17 213 4.8 9.7 0.00 0.00 0.00 46 1018.6
20260507162626 17 257 8.0 12.9 0.00 0.00 0.00 47 1018.8
20260507162123 16 272 3.2 9.7 0.00 0.00 0.00 48 1018.8
20260507161619 17 262 8.0 11.3 0.00 0.00 0.00 48 1018.5
20260507161116 16 151 9.7 11.3 0.00 0.00 0.00 49 1018.7
20260507160612 15 217 1.6 3.2 0.00 0.00 0.00 50 1018.8
20260507160109 15 282 4.8 14.5 0.00 0.00 0.00 55 1018.7
20260507155603 15 273 4.8 14.5 0.00 0.00 0.00 54 1018.8
20260507155101 16 241 6.4 11.3 0.00 0.00 0.00 53 1018.7
20260507154558 15 342 1.6 3.2 0.00 0.00 0.00 55 1018.8
20260507154055 15 356 1.6 4.8 0.00 0.00 0.00 55 1018.8
20260507153551 15 354 0.0 1.6 0.00 0.00 0.00 54 1018.7
20260507153048 15 342 0.0 0.0 0.00 0.00 0.00 63 1018.8
20260507152544 13 342 0.0 0.0 0.00 0.00 0.00 68 1018.8
20260507152040 13 357 0.0 0.0 0.00 0.00 0.00 71 1018.7
20260507151536 12 352 0.0 0.0 0.00 0.00 0.00 79 1018.8
20260507151033 12 347 0.0 0.0 0.00 0.00 0.00 81 1018.9
20260507150530 11 333 0.0 0.0 0.00 0.00 0.00 83 1019.2
20260507150027 11 341 0.0 0.0 0.00 0.00 0.00 82 1018.9
20260507145522 10 313 1.6 1.6 0.00 0.00 0.00 83 1018.8
20260507145020 10 334 0.0 0.0 0.00 0.00 0.00 81 1018.9
20260507144516 10 344 0.0 0.0 0.00 0.00 0.00 85 1018.9
20260507144014 10 340 0.0 0.0 0.00 0.00 0.00 83 1018.9
20260507143511 10 331 0.0 0.0 0.00 0.00 0.00 83 1018.8
20260507143009 8 355 0.0 0.0 0.00 0.00 0.00 86 1018.7
20260507142504 7 326 1.6 1.6 0.00 0.00 0.00 87 1018.6
20260507142001 7 304 3.2 3.2 0.00 0.00 0.00 91 1018.6
20260507141456 6 10 1.6 3.2 0.00 0.00 0.00 92 1018.6
20260507140954 6 333 0.0 1.6 0.00 0.00 0.00 93 1018.6
20260507140450 5 8 0.0 0.0 0.00 0.00 0.00 93 1018.6
20260507135948 5 316 0.0 0.0 0.00 0.00 0.00 94 1018.5
20260507135444 5 327 0.0 3.2 0.00 0.00 0.00 94 1018.4
20260507134942 4 331 0.0 0.0 0.00 0.00 0.00 95 1018.4
20260507134438 4 309 1.6 1.6 0.00 0.00 0.00 95 1018.5
20260507133934 4 313 0.0 0.0 0.00 0.00 0.00 95 1018.5
20260507133431 4 351 0.0 0.0 0.00 0.00 0.00 96 1018.3
20260507132929 4 321 0.0 0.0 0.00 0.00 0.00 96 1018.3
20260507132425 3 332 0.0 0.0 0.00 0.00 0.00 97 1018.2
20260507131921 3 316 1.6 1.6 0.00 0.00 0.00 97 1018.3
20260507131419 3 343 0.0 1.6 0.00 0.00 0.00 97 1018.4
20260507130916 3 330 0.0 0.0 0.00 0.00 0.00 97 1018.5
20260507130413 3 330 0.0 0.0 0.00 0.00 0.00 97 1018.2
20260507125912 3 347 0.0 0.0 0.00 0.00 0.00 97 1018.4
20260507125409 3 302 1.6 3.2 0.00 0.00 0.00 97 1018.5
20260507124906 3 333 0.0 0.0 0.00 0.00 0.00 97 1018.3
20260507124402 3 316 0.0 0.0 0.00 0.00 0.00 97 1018.4
20260507123901 3 343 0.0 0.0 0.00 0.00 0.00 97 1018.4
20260507123357 3 334 0.0 0.0 0.00 0.00 0.00 97 1018.4
20260507122854 3 339 0.0 0.0 0.00 0.00 0.00 97 1018.3
20260507122349 3 331 0.0 0.0 0.00 0.00 0.00 97 1017.9
20260507121846 3 339 0.0 0.0 0.00 0.00 0.00 97 1018.3
20260507121341 3 332 0.0 0.0 0.00 0.00 0.00 97 1018.2
20260507120838 3 348 0.0 0.0 0.00 0.00 0.00 96 1018.2
20260507120334 3 350 0.0 0.0 0.00 0.00 0.00 96 1018.1
20260507115831 3 338 0.0 0.0 0.00 0.00 0.00 96 1017.9
20260507115326 3 337 0.0 0.0 0.00 0.00 0.00 96 1017.9
20260507114822 3 338 0.0 0.0 0.00 0.00 0.00 96 1018.1
20260507114320 3 339 0.0 0.0 0.00 0.00 0.00 95 1017.7
20260507113817 3 337 0.0 0.0 0.00 0.00 0.00 95 1017.8
20260507113314 3 318 1.6 1.6 0.00 0.00 0.00 95 1017.9
20260507112812 4 347 0.0 1.6 0.00 0.00 0.00 94 1017.7
20260507112308 4 318 0.0 1.6 0.00 0.00 0.00 95 1017.7
20260507111806 4 329 0.0 1.6 0.00 0.00 0.00 94 1017.8
20260507111302 4 335 0.0 0.0 0.00 0.00 0.00 94 1017.8
20260507110758 4 341 0.0 0.0 0.00 0.00 0.00 94 1017.5
20260507110255 5 353 0.0 0.0 0.00 0.00 0.00 94 1017.6
20260507105752 5 329 0.0 1.6 0.00 0.00 0.00 93 1017.5
20260507105248 5 335 0.0 0.0 0.00 0.00 0.00 93 1017.6
20260507104745 5 320 0.0 0.0 0.00 0.00 0.00 92 1017.4
20260507104242 5 319 0.0 0.0 0.00 0.00 0.00 92 1017.3
20260507103738 5 338 0.0 0.0 0.00 0.00 0.00 92 1017.2
20260507103234 5 327 0.0 1.6 0.00 0.00 0.00 91 1017.2
20260507102731 5 335 0.0 0.0 0.00 0.00 0.00 91 1017.2
20260507102227 5 337 0.0 1.6 0.00 0.00 0.00 91 1017.2
20260507101723 6 335 0.0 3.2 0.00 0.00 0.00 90 1016.8
20260507101219 6 332 0.0 1.6 0.00 0.00 0.00 90 1017.1
20260507100716 6 311 0.0 0.0 0.00 0.00 0.00 88 1016.9
20260507100215 6 341 0.0 4.8 0.00 0.00 0.00 92 1016.9
20260507095712 6 357 0.0 1.6 0.00 0.00 0.00 91 1017.1
20260507095209 6 2 0.0 4.8 0.00 0.00 0.00 91 1016.8
20260507094705 6 340 0.0 0.0 0.00 0.00 0.00 89 1016.9
20260507094202 6 311 1.6 1.6 0.00 0.00 0.00 89 1016.9
20260507093659 6 317 0.0 1.6 0.00 0.00 0.00 89 1016.9
20260507093158 7 313 1.6 3.2 0.00 0.00 0.00 87 1016.9
20260507092655 7 359 0.0 1.6 0.00 0.00 0.00 87 1016.8
20260507092151 7 328 0.0 1.6 0.00 0.00 0.00 88 1016.8
20260507091648 7 310 3.2 4.8 0.00 0.00 0.00 86 1016.9
20260507091144 7 315 0.0 1.6 0.00 0.00 0.00 86 1016.8
20260507090639 7 337 0.0 0.0 0.00 0.00 0.00 86 1016.6
20260507090137 8 302 3.2 3.2 0.00 0.00 0.00 84 1016.6
20260507085634 8 15 1.6 1.6 0.00 0.00 0.00 82 1016.7
20260507085130 8 331 0.0 0.0 0.00 0.00 0.00 84 1016.8
20260507084627 8 310 3.2 3.2 0.00 0.00 0.00 83 1016.7
20260507084124 8 339 0.0 0.0 0.00 0.00 0.00 80 1016.7
20260507083621 9 346 0.0 0.0 0.00 0.00 0.00 78 1016.9
20260507083118 8 5 1.6 3.2 0.00 0.00 0.00 80 1016.7
20260507082613 8 46 1.6 1.6 0.00 0.00 0.00 82 1016.7
20260507082110 8 330 0.0 0.0 0.00 0.00 0.00 84 1016.9
20260507081607 8 327 0.0 1.6 0.00 0.00 0.00 84 1016.7
20260507081104 8 12 1.6 1.6 0.00 0.00 0.00 82 1016.9
20260507080600 8 327 0.0 0.0 0.00 0.00 0.00 82 1016.9
20260507080056 9 306 1.6 3.2 0.00 0.00 0.00 78 1016.7
20260507075551 9 310 1.6 4.8 0.00 0.00 0.00 78 1016.6
20260507075048 9 327 0.0 0.0 0.00 0.00 0.00 80 1016.8
20260507074545 10 297 3.2 3.2 0.00 0.00 0.00 78 1016.7
20260507074043 10 336 0.0 0.0 0.00 0.00 0.00 78 1016.6
20260507073539 10 15 1.6 3.2 0.00 0.00 0.00 75 1016.5
20260507073036 10 11 0.0 1.6 0.00 0.00 0.00 74 1016.7
20260507072533 10 349 0.0 3.2 0.00 0.00 0.00 75 1016.7
20260507072030 10 299 1.6 4.8 0.00 0.00 0.00 73 1016.7
20260507071528 11 308 1.6 3.2 0.00 0.00 0.00 74 1016.8
20260507071024 10 335 0.0 0.0 0.00 0.00 0.00 77 1016.9
20260507070521 10 350 0.0 1.6 0.00 0.00 0.00 76 1016.6
20260507070018 10 334 0.0 1.6 0.00 0.00 0.00 73 1016.8
20260507065514 10 328 0.0 1.6 0.00 0.00 0.00 75 1016.6
20260507065012 10 328 0.0 1.6 0.00 0.00 0.00 75 1016.7
20260507064510 10 331 0.0 0.0 0.00 0.00 0.00 75 1016.6
20260507064008 10 327 0.0 1.6 0.00 0.00 0.00 75 1016.7
20260507063504 10 3 0.0 0.0 0.00 0.00 0.00 72 1016.6
20260507063002 10 337 0.0 0.0 0.00 0.00 0.00 72 1016.6
20260507062458 11 10 1.6 1.6 0.00 0.00 0.00 74 1016.6
20260507061956 11 328 0.0 0.0 0.00 0.00 0.00 71 1016.5
20260507061454 11 11 1.6 3.2 0.00 0.00 0.00 71 1016.5
20260507060952 11 325 0.0 0.0 0.00 0.00 0.00 71 1016.4
20260507060448 12 312 3.2 4.8 0.00 0.00 0.00 70 1016.5
20260507055945 11 314 1.6 1.6 0.00 0.00 0.00 67 1016.5
20260507055440 12 321 0.0 3.2 0.00 0.00 0.00 66 1016.6
20260507054937 12 345 0.0 0.0 0.00 0.00 0.00 66 1016.5
20260507054433 12 337 0.0 0.0 0.00 0.00 0.00 65 1016.5
20260507053931 12 322 0.0 1.6 0.00 0.00 0.00 64 1016.7
20260507053428 13 320 1.6 3.2 0.00 0.00 0.00 65 1016.5
20260507052927 13 38 3.2 4.8 0.00 0.00 0.00 57 1016.4
20260507052424 14 283 4.8 4.8 0.00 0.00 0.00 57 1016.6
20260507051920 12 173 4.8 4.8 0.00 0.00 0.00 57 1016.4
20260507051418 13 318 1.6 3.2 0.00 0.00 0.00 61 1016.5
20260507050915 14 23 1.6 4.8 0.00 0.00 0.00 57 1016.7
20260507050411 14 350 0.0 1.6 0.00 0.00 0.00 57 1016.6
20260507045908 16 286 1.6 9.7 0.00 0.00 0.00 50 1016.4
20260507045405 15 341 0.0 1.6 0.00 0.00 0.00 56 1016.7
20260507044902 16 326 1.6 8.0 0.00 0.00 0.00 51 1016.6
20260507044359 15 351 0.0 1.6 0.00 0.00 0.00 54 1016.5
20260507043855 13 187 6.4 8.0 0.00 0.00 0.00 56 1016.6
20260507043351 13 330 1.6 4.8 0.00 0.00 0.00 61 1016.5
20260507042848 13 321 4.8 4.8 0.00 0.00 0.00 58 1016.7
20260507042344 13 308 3.2 4.8 0.00 0.00 0.00 61 1016.4
20260507041840 15 311 1.6 3.2 0.00 0.00 0.00 56 1016.5
20260507041337 15 344 0.0 4.8 0.00 0.00 0.00 54 1016.2
20260507040835 13 1 0.0 1.6 0.00 0.00 0.00 59 1016.3
20260507040330 13 65 1.6 4.8 0.00 0.00 0.00 62 1016.5
20260507035826 13 354 0.0 1.6 0.00 0.00 0.00 60 1016.3
20260507035322 13 353 0.0 1.6 0.00 0.00 0.00 61 1016.3
20260507034820 13 312 1.6 3.2 0.00 0.00 0.00 62 1016.3
20260507034316 13 326 0.0 3.2 0.00 0.00 0.00 57 1016.3
20260507033815 13 350 0.0 0.0 0.00 0.00 0.00 60 1015.9
20260507033312 14 315 0.0 0.0 0.00 0.00 0.00 59 1016.2
20260507032809 14 320 0.0 1.6 0.00 0.00 0.00 60 1016.1
20260507032306 14 349 0.0 0.0 0.00 0.00 0.00 51 1016.1
20260507031802 15 332 0.0 0.0 0.00 0.00 0.00 55 1016.2
20260507031259 15 341 0.0 0.0 0.00 0.00 0.00 54 1015.7
20260507030755 15 50 1.6 3.2 0.00 0.00 0.00 54 1015.7
20260507030253 15 342 0.0 0.0 0.00 0.00 0.00 54 1015.7
20260507025750 15 340 0.0 0.0 0.00 0.00 0.00 52 1015.8
20260507025247 16 325 0.0 1.6 0.00 0.00 0.00 51 1015.7
20260507024745 17 332 0.0 3.2 0.00 0.00 0.00 50 1015.5
20260507024242 18 85 3.2 4.8 0.00 0.00 0.00 38 1015.5
20260507023737 17 332 0.0 1.6 0.00 0.00 0.00 40 1015.7
20260507023235 18 359 0.0 1.6 0.00 0.00 0.00 42 1015.7
20260507022732 18 342 3.2 4.8 0.00 0.00 0.00 37 1015.7
20260507022228 19 321 1.6 4.8 0.00 0.00 0.00 40 1015.6
20260507021724 18 22 0.0 4.8 0.00 0.00 0.00 45 1015.5
20260507021220 19 281 3.2 20.9 0.00 0.00 0.00 41 1015.6
20260507020718 19 346 0.0 1.6 0.00 0.00 0.00 43 1015.6
20260507020214 19 216 4.8 8.0 0.00 0.00 0.00 38 1015.6
20260507015712 19 319 0.0 0.0 0.00 0.00 0.00 46 1015.4
20260507015209 19 321 0.0 0.0 0.00 0.00 0.00 43 1015.4
20260507014706 19 2 0.0 0.0 0.00 0.00 0.00 41 1015.5
20260507014202 20 350 0.0 0.0 0.00 0.00 0.00 43 1015.6
20260507013659 20 308 1.6 3.2 0.00 0.00 0.00 40 1015.5
20260507013156 20 8 3.2 8.0 0.00 0.00 0.00 39 1015.4
20260507012654 20 311 4.8 12.9 0.00 0.00 0.00 36 1015.5
20260507012148 20 344 0.0 3.2 0.00 0.00 0.00 38 1015.3
20260507011647 21 330 1.6 1.6 0.00 0.00 0.00 37 1015.5
20260507011143 21 328 0.0 3.2 0.00 0.00 0.00 35 1015.5
20260507010638 21 30 4.8 8.0 0.00 0.00 0.00 35 1015.5
20260507010134 21 340 6.4 8.0 0.00 0.00 0.00 35 1015.5
20260507005631 21 342 0.0 4.8 0.00 0.00 0.00 34 1015.4
20260507005127 21 352 3.2 9.7 0.00 0.00 0.00 35 1015.5
20260507004625 21 200 8.0 11.3 0.00 0.00 0.00 34 1015.2
20260507004122 21 337 3.2 12.9 0.00 0.00 0.00 34 1015.6
20260507003618 21 76 6.4 8.0 0.00 0.00 0.00 33 1015.5
20260507003113 21 307 8.0 11.3 0.00 0.00 0.00 33 1015.6
20260507002610 21 287 4.8 8.0 0.00 0.00 0.00 33 1015.6
20260507002105 21 330 0.0 4.8 0.00 0.00 0.00 34 1015.6
20260507001602 21 27 8.0 11.3 0.00 0.00 0.00 34 1015.6
20260507001100 22 335 1.6 1.6 0.00 0.00 0.00 33 1015.4
20260507000556 22 356 6.4 16.1 0.00 0.00 0.00 32 1015.5
20260507000051 22 347 1.6 8.0 0.00 0.00 0.00 36 1015.6
20260506235549 22 312 8.0 11.3 0.00 0.00 0.00 31 1015.5
20260506235044 22 7 14.5 22.5 0.00 0.00 0.00 31 1015.6
20260506234542 22 345 3.2 11.3 0.00 0.00 0.00 32 1015.4
20260506234039 22 190 3.2 8.0 0.00 0.00 0.00 31 1015.4
20260506233536 22 347 1.6 11.3 0.00 0.00 0.00 32 1015.6
20260506233033 22 212 11.3 12.9 0.00 0.00 0.00 32 1015.3
20260506232529 22 1 6.4 16.1 0.00 0.00 0.00 33 1015.4
20260506232019 22 350 3.2 11.3 0.00 0.00 0.00 34 1015.4
20260506231516 22 351 0.0 8.0 0.00 0.00 0.00 34 1015.4
20260506231014 22 345 3.2 4.8 0.00 0.00 0.00 34 1015.3
20260506230510 22 4 4.8 11.3 0.00 0.00 0.00 35 1015.4
20260506230008 22 38 1.6 1.6 0.00 0.00 0.00 35 1015.4
20260506225504 22 6 4.8 20.9 0.00 0.00 0.00 36 1015.4
20260506225000 22 321 4.8 12.9 0.00 0.00 0.00 32 1015.5
20260506224457 22 31 14.5 24.1 0.00 0.00 0.00 33 1015.7
20260506223954 22 354 3.2 12.9 0.00 0.00 0.00 34 1015.6
20260506223450 21 31 1.6 8.0 0.00 0.00 0.00 32 1015.5
20260506222947 22 350 9.7 16.1 0.00 0.00 0.00 31 1015.6
20260506222444 22 57 6.4 14.5 0.00 0.00 0.00 32 1015.7
20260506221940 22 350 6.4 14.5 0.00 0.00 0.00 33 1015.5
20260506221438 22 351 9.7 16.1 0.00 0.00 0.00 32 1015.7
20260506220936 22 12 1.6 3.2 0.00 0.00 0.00 34 1015.7
20260506220431 22 316 1.6 8.0 0.00 0.00 0.00 34 1015.9
20260506215927 22 354 0.0 1.6 0.00 0.00 0.00 39 1016.1
20260506215424 22 27 4.8 8.0 0.00 0.00 0.00 33 1015.9
20260506214919 22 17 4.8 12.9 0.00 0.00 0.00 35 1016.3
20260506214417 22 333 1.6 4.8 0.00 0.00 0.00 33 1016.3
20260506213914 21 330 3.2 12.9 0.00 0.00 0.00 35 1016.2
20260506213412 21 21 6.4 11.3 0.00 0.00 0.00 34 1016.3
20260506212909 21 165 8.0 12.9 0.00 0.00 0.00 33 1016.3
20260506212405 23 12 8.0 20.9 0.00 0.00 0.00 33 1016.3
20260506211859 23 332 3.2 3.2 0.00 0.00 0.00 31 1016.5
20260506211356 23 343 1.6 3.2 0.00 0.00 0.00 32 1016.3
20260506210853 22 36 8.0 12.9 0.00 0.00 0.00 32 1016.5
20260506210350 22 38 3.2 3.2 0.00 0.00 0.00 33 1016.5
20260506205847 21 358 1.6 9.7 0.00 0.00 0.00 35 1016.5
20260506205343 22 44 8.0 16.1 0.00 0.00 0.00 33 1016.6
20260506204840 24 313 4.8 8.0 0.00 0.00 0.00 31 1016.8
20260506204337 22 331 1.6 11.3 0.00 0.00 0.00 32 1016.8
20260506203835 23 306 4.8 12.9 0.00 0.00 0.00 32 1016.8
20260506203332 22 291 4.8 9.7 0.00 0.00 0.00 31 1016.8
20260506202829 22 1 1.6 14.5 0.00 0.00 0.00 34 1016.6
20260506202326 22 54 1.6 9.7 0.00 0.00 0.00 31 1016.7
20260506201822 23 342 1.6 4.8 0.00 0.00 0.00 33 1017.1
20260506201320 22 345 8.0 11.3 0.00 0.00 0.00 34 1017.1
20260506200816 22 358 6.4 11.3 0.00 0.00 0.00 34 1016.7
20260506200312 23 334 4.8 8.0 0.00 0.00 0.00 30 1016.8
20260506195809 22 323 1.6 9.7 0.00 0.00 0.00 33 1017.1
20260506195306 22 355 1.6 4.8 0.00 0.00 0.00 34 1017.1
20260506194803 22 325 3.2 9.7 0.00 0.00 0.00 32 1017.1
20260506194259 21 344 1.6 4.8 0.00 0.00 0.00 35 1017.1
20260506193757 21 18 1.6 9.7 0.00 0.00 0.00 36 1017.3
20260506193254 20 325 3.2 4.8 0.00 0.00 0.00 36 1017.5
20260506192750 20 319 3.2 9.7 0.00 0.00 0.00 36 1017.7
20260506192247 20 323 8.0 9.7 0.00 0.00 0.00 36 1017.5